ACA290 KLAX-KSFO

Flight info

Callsign ACA290
Flight time 0h 51m
Altitude 34000
Route SUMMR2 STOKD SERFR SERFR4
Aircraft B738/M-SDGIJ1LRWY/SB1

Departure

Time 2026-05-06 19:49
Airport Los Angeles International Airport (KLAX)

Arrival

Time 2026-05-06 20:41
Airport San Francisco International Airport (KSFO)
Time Latitude Longitude Altitude Speed Heading
2026-05-06 19:41 33.94688 -118.40190 117 ft 0 kts 84°
2026-05-06 19:45 33.94685 -118.40215 117 ft 4 kts 84°
2026-05-06 19:45 33.94673 -118.40261 117 ft 7 kts 49°
2026-05-06 19:45 33.94665 -118.40275 117 ft 11 kts 14°
2026-05-06 19:45 33.94697 -118.40270 117 ft 0 kts
2026-05-06 19:46 33.94738 -118.40275 117 ft 19 kts 354°
2026-05-06 19:46 33.94809 -118.40284 117 ft 0 kts 353°
2026-05-06 19:46 33.94884 -118.40261 117 ft 13 kts 43°
2026-05-06 19:47 33.94920 -118.40157 117 ft 28 kts 77°
2026-05-06 19:47 33.94940 -118.39981 114 ft 0 kts 74°
2026-05-06 19:47 33.94952 -118.39955 114 ft 11 kts 50°
2026-05-06 19:47 33.95023 -118.39992 114 ft 16 kts 291°
2026-05-06 19:48 33.95031 -118.40035 114 ft 0 kts 268°
2026-05-06 19:48 33.95031 -118.40038 114 ft 8 kts 265°
2026-05-06 19:49 33.94979 -118.40481 120 ft 96 kts 263°
2026-05-06 19:49 33.94845 -118.41576 219 ft 160 kts 261°
2026-05-06 19:49 33.94696 -118.42867 986 ft 155 kts 264°
2026-05-06 19:49 33.94595 -118.44164 1797 ft 162 kts 265°
2026-05-06 19:50 33.94482 -118.45474 2400 ft 171 kts 265°
2026-05-06 19:50 33.94350 -118.46950 2933 ft 188 kts 266°
2026-05-06 19:50 33.94281 -118.48543 3486 ft 203 kts 270°
2026-05-06 19:50 33.94249 -118.50218 4112 ft 215 kts 271°
2026-05-06 19:51 33.94163 -118.52016 4722 ft 228 kts 268°
2026-05-06 19:51 33.94010 -118.53956 5348 ft 242 kts 267°
2026-05-06 19:51 33.93840 -118.55986 6057 ft 251 kts 268°
2026-05-06 19:51 33.93668 -118.58094 6827 ft 257 kts 268°
2026-05-06 19:52 33.93496 -118.60281 7529 ft 269 kts 268°
2026-05-06 19:52 33.93318 -118.62551 8259 ft 280 kts 268°
2026-05-06 19:52 33.93133 -118.64928 8857 ft 296 kts 268°
2026-05-06 19:52 33.92938 -118.67429 9581 ft 305 kts 267°
2026-05-06 19:53 33.92736 -118.70002 10427 ft 310 kts 268°
2026-05-06 19:53 33.92535 -118.72593 11055 ft 324 kts 268°
2026-05-06 19:53 33.92321 -118.75363 11618 ft 339 kts 268°
2026-05-06 19:53 33.92097 -118.78259 12058 ft 357 kts 268°
2026-05-06 19:54 33.91871 -118.81208 12119 ft 385 kts 268°
2026-05-06 19:54 33.91690 -118.84573 12159 ft 412 kts 271°
2026-05-06 19:54 33.91683 -118.88044 12613 ft 421 kts 274°
2026-05-06 19:54 33.91783 -118.91592 13343 ft 426 kts 276°
2026-05-06 19:55 33.91926 -118.95190 14058 ft 431 kts 276°
2026-05-06 19:55 33.92162 -118.98747 14868 ft 431 kts 282°
2026-05-06 19:55 33.92925 -119.02261 15485 ft 431 kts 294°
2026-05-06 19:55 33.94204 -119.05556 16173 ft 432 kts 302°
2026-05-06 19:56 33.95710 -119.08704 16862 ft 435 kts 305°
2026-05-06 19:56 33.97319 -119.11828 17551 ft 438 kts 306°
2026-05-06 19:56 33.99034 -119.14916 18238 ft 439 kts 311°
2026-05-06 19:56 34.01001 -119.17714 18912 ft 438 kts 317°
2026-05-06 19:57 34.03245 -119.20279 19581 ft 439 kts 323°
2026-05-06 19:57 34.05666 -119.22661 20194 ft 442 kts 326°
2026-05-06 19:57 34.08167 -119.24918 20859 ft 444 kts 328°
2026-05-06 19:57 34.10760 -119.27162 21474 ft 448 kts 328°
2026-05-06 19:58 34.13358 -119.29370 22104 ft 451 kts 329°
2026-05-06 19:58 34.16022 -119.31625 22685 ft 456 kts 329°
2026-05-06 19:58 34.18635 -119.33843 23304 ft 458 kts 329°
2026-05-06 19:58 34.21239 -119.36058 23887 ft 461 kts 329°
2026-05-06 19:59 34.23869 -119.38306 24389 ft 466 kts 329°
2026-05-06 19:59 34.26516 -119.40575 24879 ft 470 kts 329°
2026-05-06 19:59 34.29026 -119.42735 25396 ft 473 kts 329°
2026-05-06 19:59 34.31708 -119.45049 25868 ft 477 kts 329°
2026-05-06 20:00 34.34381 -119.47362 26666 ft 473 kts 329°
2026-05-06 20:00 34.37030 -119.49661 27451 ft 470 kts 329°
2026-05-06 20:00 34.39638 -119.52056 28177 ft 469 kts 326°
2026-05-06 20:00 34.42085 -119.54594 28822 ft 470 kts 323°
2026-05-06 20:01 34.44475 -119.57296 29448 ft 470 kts 321°
2026-05-06 20:01 34.46809 -119.60072 30011 ft 470 kts 320°
2026-05-06 20:01 34.49099 -119.62869 30575 ft 470 kts 320°
2026-05-06 20:01 34.51381 -119.65695 31181 ft 467 kts 319°
2026-05-06 20:02 34.53652 -119.68523 31770 ft 465 kts 319°
2026-05-06 20:02 34.55882 -119.71302 32276 ft 464 kts 319°
2026-05-06 20:02 34.58118 -119.74084 32743 ft 464 kts 319°
2026-05-06 20:02 34.60387 -119.76905 33291 ft 461 kts 319°
2026-05-06 20:03 34.62611 -119.79667 33757 ft 460 kts 320°
2026-05-06 20:03 34.64847 -119.82440 34124 ft 461 kts 320°
2026-05-06 20:03 34.69349 -119.88018 34130 ft 460 kts 319°
2026-05-06 20:04 34.73804 -119.93549 34129 ft 460 kts 320°
2026-05-06 20:04 34.78116 -119.98904 34133 ft 460 kts 320°
2026-05-06 20:05 34.82437 -120.04278 34134 ft 462 kts 319°
2026-05-06 20:05 34.86922 -120.09868 34131 ft 461 kts 319°
2026-05-06 20:06 34.91411 -120.15474 34128 ft 461 kts 319°
2026-05-06 20:06 34.95851 -120.21027 34126 ft 461 kts 319°
2026-05-06 20:07 35.00314 -120.26617 34116 ft 461 kts 319°
2026-05-06 20:07 35.04804 -120.32252 34113 ft 462 kts 319°
2026-05-06 20:08 35.09146 -120.37701 34111 ft 462 kts 320°
2026-05-06 20:08 35.13596 -120.42918 34109 ft 459 kts 322°
2026-05-06 20:09 35.18324 -120.48148 34113 ft 459 kts 323°
2026-05-06 20:09 35.22976 -120.53272 34113 ft 459 kts 323°
2026-05-06 20:10 35.27640 -120.58449 34116 ft 460 kts 323°
2026-05-06 20:10 35.32210 -120.63558 34116 ft 460 kts 322°
2026-05-06 20:11 35.36892 -120.68824 34119 ft 461 kts 322°
2026-05-06 20:11 35.41605 -120.74143 34118 ft 461 kts 322°
2026-05-06 20:12 35.46301 -120.79455 34113 ft 461 kts 322°
2026-05-06 20:12 35.51119 -120.84582 34109 ft 458 kts 326°
2026-05-06 20:13 35.56187 -120.89319 34105 ft 458 kts 327°
2026-05-06 20:13 35.61293 -120.93954 34097 ft 458 kts 328°
2026-05-06 20:14 35.66398 -120.98616 34091 ft 457 kts 327°
2026-05-06 20:14 35.71465 -121.03289 34093 ft 457 kts 327°
2026-05-06 20:15 35.76558 -121.08019 34101 ft 458 kts 327°
2026-05-06 20:15 35.81625 -121.12748 34111 ft 457 kts 327°
2026-05-06 20:16 35.86667 -121.17465 34114 ft 458 kts 327°
2026-05-06 20:16 35.91717 -121.22199 34114 ft 458 kts 327°
2026-05-06 20:17 35.96810 -121.26984 34111 ft 457 kts 327°
2026-05-06 20:17 36.01827 -121.31706 34120 ft 457 kts 327°
2026-05-06 20:18 36.06895 -121.36458 34117 ft 457 kts 328°
2026-05-06 20:18 36.12129 -121.40812 34118 ft 454 kts 332°
2026-05-06 20:19 36.17305 -121.44796 34127 ft 453 kts 332°
2026-05-06 20:19 36.22630 -121.48866 34121 ft 449 kts 332°
2026-05-06 20:20 36.25292 -121.50916 33840 ft 446 kts 332°
2026-05-06 20:20 36.27905 -121.52935 33007 ft 449 kts 332°
2026-05-06 20:20 36.30551 -121.54986 31989 ft 455 kts 331°
2026-05-06 20:20 36.33231 -121.57072 31334 ft 452 kts 331°
2026-05-06 20:21 36.35806 -121.59083 30306 ft 459 kts 330°
2026-05-06 20:21 36.38522 -121.61208 29344 ft 461 kts 330°
2026-05-06 20:21 36.41230 -121.63335 28432 ft 462 kts 330°
2026-05-06 20:21 36.43783 -121.65342 27321 ft 467 kts 329°
2026-05-06 20:22 36.46534 -121.67507 26518 ft 463 kts 329°
2026-05-06 20:22 36.49214 -121.69623 26143 ft 451 kts 329°
2026-05-06 20:22 36.51845 -121.71705 25835 ft 438 kts 329°
2026-05-06 20:22 36.54262 -121.73620 25610 ft 425 kts 329°
2026-05-06 20:23 36.56792 -121.75627 25384 ft 412 kts 329°
2026-05-06 20:23 36.59184 -121.77525 25166 ft 400 kts 330°
2026-05-06 20:23 36.61536 -121.79392 24862 ft 392 kts 330°
2026-05-06 20:23 36.63816 -121.81199 24358 ft 390 kts 330°
2026-05-06 20:24 36.66111 -121.83018 23866 ft 388 kts 330°
2026-05-06 20:24 36.68393 -121.84827 23373 ft 385 kts 330°
2026-05-06 20:24 36.70667 -121.86620 22864 ft 383 kts 330°
2026-05-06 20:24 36.72802 -121.88179 22450 ft 379 kts 334°
2026-05-06 20:25 36.75201 -121.89551 21937 ft 376 kts 342°
2026-05-06 20:25 36.77701 -121.90533 21497 ft 371 kts 347°
2026-05-06 20:25 36.80204 -121.91299 20955 ft 367 kts 349°
2026-05-06 20:25 36.82678 -121.91973 20156 ft 363 kts 350°
2026-05-06 20:26 36.85180 -121.92626 19322 ft 359 kts 350°
2026-05-06 20:26 36.87674 -121.93278 18471 ft 356 kts 350°
2026-05-06 20:26 36.90044 -121.93903 17674 ft 352 kts 350°
2026-05-06 20:26 36.92425 -121.94543 16846 ft 350 kts 350°
2026-05-06 20:27 36.94590 -121.95134 16127 ft 346 kts 350°
2026-05-06 20:27 36.96903 -121.95848 15323 ft 344 kts 347°
2026-05-06 20:27 36.99032 -121.96646 14575 ft 342 kts 345°
2026-05-06 20:27 37.01284 -121.97563 13781 ft 340 kts 344°
2026-05-06 20:28 37.03486 -121.98472 13043 ft 336 kts 345°
2026-05-06 20:28 37.05710 -121.99379 12375 ft 331 kts 345°
2026-05-06 20:28 37.07886 -122.00249 11700 ft 326 kts 345°
2026-05-06 20:28 37.10014 -122.01087 11016 ft 322 kts 345°
2026-05-06 20:29 37.11995 -122.01864 10579 ft 311 kts 345°
2026-05-06 20:29 37.13756 -122.02554 10473 ft 299 kts 345°
2026-05-06 20:29 37.15581 -122.03268 10306 ft 289 kts 345°
2026-05-06 20:29 37.17405 -122.03981 10167 ft 278 kts 345°
2026-05-06 20:30 37.19178 -122.04674 10030 ft 268 kts 345°
2026-05-06 20:30 37.22485 -122.05969 9390 ft 265 kts 345°
2026-05-06 20:30 37.24095 -122.06599 9102 ft 262 kts 345°
2026-05-06 20:31 37.25687 -122.07222 8780 ft 262 kts 345°
2026-05-06 20:31 37.27275 -122.07843 8442 ft 262 kts 344°
2026-05-06 20:31 37.28864 -122.08466 8131 ft 260 kts 344°
2026-05-06 20:31 37.30373 -122.09059 7835 ft 259 kts 345°
2026-05-06 20:32 37.31928 -122.09673 7552 ft 256 kts 344°
2026-05-06 20:32 37.33471 -122.10280 7226 ft 256 kts 345°
2026-05-06 20:32 37.35016 -122.10888 6895 ft 255 kts 344°
2026-05-06 20:32 37.36534 -122.11488 6605 ft 253 kts 345°
2026-05-06 20:33 37.37990 -122.12048 6306 ft 252 kts 346°
2026-05-06 20:33 37.39450 -122.12554 6001 ft 252 kts 347°
2026-05-06 20:33 37.40979 -122.13054 5699 ft 252 kts 347°
2026-05-06 20:33 37.42499 -122.13550 5425 ft 248 kts 347°
2026-05-06 20:34 37.44044 -122.14060 5361 ft 232 kts 346°
2026-05-06 20:34 37.46588 -122.14914 5144 ft 220 kts 346°
2026-05-06 20:34 37.47965 -122.15378 5036 ft 207 kts 347°
2026-05-06 20:34 37.49320 -122.15833 4912 ft 197 kts 346°
2026-05-06 20:35 37.50561 -122.16251 4836 ft 200 kts 347°
2026-05-06 20:35 37.51942 -122.16713 4542 ft 214 kts 346°
2026-05-06 20:35 37.53394 -122.17374 4111 ft 232 kts 332°
2026-05-06 20:35 37.54575 -122.18783 3567 ft 240 kts 303°
2026-05-06 20:36 37.55249 -122.20702 2969 ft 245 kts 287°
2026-05-06 20:36 37.55763 -122.22671 2379 ft 231 kts 293°
2026-05-06 20:36 37.56489 -122.24352 2044 ft 207 kts 303°
2026-05-06 20:36 37.57201 -122.25842 1756 ft 188 kts 299°
2026-05-06 20:37 37.57774 -122.27254 1518 ft 173 kts 297°
2026-05-06 20:37 37.58308 -122.28543 1297 ft 159 kts 299°
2026-05-06 20:37 37.58817 -122.29718 1098 ft 148 kts 299°
2026-05-06 20:37 37.59292 -122.30856 931 ft 149 kts 298°
2026-05-06 20:38 37.59777 -122.31998 703 ft 146 kts 299°
2026-05-06 20:38 37.60254 -122.33122 514 ft 147 kts 298°
2026-05-06 20:38 37.60734 -122.34276 320 ft 146 kts 298°
2026-05-06 20:38 37.61216 -122.35395 126 ft 143 kts 299°
2026-05-06 20:39 37.61666 -122.36472 12 ft 130 kts 298°
2026-05-06 20:39 37.59883 -122.32217 611 ft 137 kts 298°
2026-05-06 20:40 37.60323 -122.33253 469 ft 135 kts 298°
2026-05-06 20:40 37.60775 -122.34326 349 ft 143 kts 298°
2026-05-06 20:40 37.61229 -122.35409 183 ft 138 kts 298°
2026-05-06 20:40 37.61660 -122.36456 21 ft 127 kts 297°
2026-05-06 20:41 37.61964 -122.37204 15 ft 64 kts 298°
2026-05-06 20:41 37.62135 -122.37611 24 ft 40 kts 283°
2026-05-06 20:41 37.62111 -122.37723 26 ft 0 kts 234°